GW4777 Weather Reports


Display with metric or nautical units.
time (UTC)temp
F
wind
direction
speed
MPH
gust
MPH
rain 1hr
in
rain 24hr
in
rain mn
in
humidity
%
barometer
mb
20260906214103 101 152 0.0 1.0 0.00 0.00 0.00 30 1011.6
20260906213601 101 105 0.0 0.0 0.00 0.00 0.00 30 1011.7
20260906213057 102 211 1.0 1.0 0.00 0.00 0.00 28 1011.7
20260906212549 102 136 0.0 0.0 0.00 0.00 0.00 29 1011.9
20260906212045 104 187 6.0 9.0 0.00 0.00 0.00 29 1012.0
20260906211539 103 124 0.0 1.0 0.00 0.00 0.00 30 1011.8
20260906211035 104 143 3.0 6.0 0.00 0.00 0.00 29 1011.9
20260906210530 103 127 1.0 1.0 0.00 0.00 0.00 30 1011.9
20260906210030 104 197 3.0 4.0 0.00 0.00 0.00 29 1012.0
20260906205525 102 109 2.0 3.0 0.00 0.00 0.00 29 1012.2
20260906205022 103 165 3.0 3.0 0.00 0.00 0.00 30 1012.2
20260906204521 103 108 4.0 6.0 0.00 0.00 0.00 29 1012.2
20260906204020 103 153 1.0 2.0 0.00 0.00 0.00 29 1012.5
20260906203515 102 151 0.0 0.0 0.00 0.00 0.00 30 1012.6
20260906203015 100 96 3.0 4.0 0.00 0.00 0.00 30 1012.5
20260906202506 100 39 1.0 2.0 0.00 0.00 0.00 31 1012.6
20260906202001 102 169 1.0 1.0 0.00 0.00 0.00 30 1012.6
20260906201455 102 114 1.0 1.0 0.00 0.00 0.00 30 1012.6
20260906200950 101 279 3.0 3.0 0.00 0.00 0.00 30 1012.6
20260906200447 101 77 1.0 1.0 0.00 0.00 0.00 31 1012.6
20260906195946 100 138 2.0 2.0 0.00 0.00 0.00 31 1012.7
20260906195437 102 73 1.0 1.0 0.00 0.00 0.00 30 1012.8
20260906194933 103 138 4.0 6.0 0.00 0.00 0.00 30 1012.9
20260906194429 103 137 2.0 3.0 0.00 0.00 0.00 30 1013.0
20260906193924 103 82 2.0 2.0 0.00 0.00 0.00 30 1013.1
20260906193419 102 83 2.0 2.0 0.00 0.00 0.00 29 1013.0
20260906192915 101 142 2.0 3.0 0.00 0.00 0.00 30 1013.1
20260906192414 100 178 3.0 4.0 0.00 0.00 0.00 31 1013.1
20260906191914 100 56 0.0 1.0 0.00 0.00 0.00 32 1013.2
20260906191409 100 50 1.0 2.0 0.00 0.00 0.00 32 1013.3
20260906190907 99 56 1.0 1.0 0.00 0.00 0.00 33 1013.2
20260906190406 102 188 2.0 6.0 0.00 0.00 0.00 31 1013.3
20260906185901 103 12 1.0 2.0 0.00 0.00 0.00 30 1013.3
20260906185401 102 164 2.0 3.0 0.00 0.00 0.00 30 1013.4
20260906184901 102 133 0.0 1.0 0.00 0.00 0.00 31 1013.3
20260906184356 100 246 2.0 2.0 0.00 0.00 0.00 31 1013.6
20260906183851 99 66 0.0 1.0 0.00 0.00 0.00 35 1013.7
20260906183348 100 128 1.0 1.0 0.00 0.00 0.00 35 1013.7
20260906182847 100 144 2.0 4.0 0.00 0.00 0.00 34 1014.0
20260906182343 100 5 1.0 2.0 0.00 0.00 0.00 35 1013.8
20260906181838 99 56 0.0 0.0 0.00 0.00 0.00 36 1014.0
20260906181334 99 97 0.0 1.0 0.00 0.00 0.00 35 1014.2
20260906180829 98 55 1.0 2.0 0.00 0.00 0.00 36 1014.1
20260906180324 98 53 1.0 2.0 0.00 0.00 0.00 36 1014.2
20260906175821 96 73 0.0 0.0 0.00 0.00 0.00 38 1014.1
20260906175317 99 75 1.0 2.0 0.00 0.00 0.00 37 1014.2
20260906174816 100 103 2.0 2.0 0.00 0.00 0.00 36 1014.4
20260906174310 98 152 0.0 1.0 0.00 0.00 0.00 37 1014.4
20260906173805 97 200 1.0 1.0 0.00 0.00 0.00 37 1014.4
20260906173301 98 75 0.0 1.0 0.00 0.00 0.00 37 1014.7
20260906172759 100 61 0.0 1.0 0.00 0.00 0.00 36 1014.6
20260906172255 100 174 1.0 2.0 0.00 0.00 0.00 35 1014.8
20260906171750 99 164 1.0 2.0 0.00 0.00 0.00 36 1014.8
20260906171245 98 175 3.0 3.0 0.00 0.00 0.00 36 1014.8
20260906170741 98 66 0.0 1.0 0.00 0.00 0.00 37 1014.8
20260906170237 99 127 1.0 1.0 0.00 0.00 0.00 36 1015.1
20260906165732 98 226 1.0 2.0 0.00 0.00 0.00 36 1015.3
20260906165227 98 63 1.0 1.0 0.00 0.00 0.00 36 1015.0
20260906164726 98 92 1.0 1.0 0.00 0.00 0.00 37 1015.1
20260906164216 100 50 0.0 0.0 0.00 0.00 0.00 36 1015.4
20260906163712 98 190 2.0 2.0 0.00 0.00 0.00 37 1015.1
20260906163208 97 49 2.0 2.0 0.00 0.00 0.00 39 1015.3
20260906162705 98 181 2.0 2.0 0.00 0.00 0.00 37 1015.3
20260906162205 95 150 0.0 1.0 0.00 0.00 0.00 40 1015.5
20260906161659 96 129 0.0 1.0 0.00 0.00 0.00 39 1015.4
20260906161158 96 146 0.0 0.0 0.00 0.00 0.00 39 1015.4
20260906160658 96 134 0.0 0.0 0.00 0.00 0.00 41 1015.3
20260906160156 95 168 1.0 1.0 0.00 0.00 0.00 40 1015.3
20260906155654 97 98 0.0 1.0 0.00 0.00 0.00 39 1015.1
20260906155150 97 127 0.0 0.0 0.00 0.00 0.00 39 1015.1
20260906154645 96 151 0.0 0.0 0.00 0.00 0.00 40 1015.3
20260906154145 95 145 1.0 1.0 0.00 0.00 0.00 40 1015.4
20260906153644 94 202 0.0 1.0 0.00 0.00 0.00 42 1015.4
20260906153138 94 87 1.0 1.0 0.00 0.00 0.00 42 1015.1
20260906152633 93 99 0.0 0.0 0.00 0.00 0.00 44 1015.3
20260906152127 94 117 0.0 0.0 0.00 0.00 0.00 43 1015.1
20260906151622 95 105 0.0 0.0 0.00 0.00 0.00 42 1015.0
20260906151118 93 151 0.0 0.0 0.00 0.00 0.00 42 1015.0
20260906150613 93 150 1.0 1.0 0.00 0.00 0.00 43 1015.1
20260906150109 93 208 0.0 1.0 0.00 0.00 0.00 44 1015.0
20260906145607 93 150 0.0 0.0 0.00 0.00 0.00 44 1014.8
20260906145102 91 150 1.0 1.0 0.00 0.00 0.00 45 1015.0
20260906144556 91 126 2.0 2.0 0.00 0.00 0.00 46 1015.0
20260906144052 90 196 0.0 1.0 0.00 0.00 0.00 47 1015.0
20260906143546 89 141 0.0 0.0 0.00 0.00 0.00 48 1015.0
20260906143043 89 158 0.0 0.0 0.00 0.00 0.00 48 1015.1
20260906142537 88 142 0.0 1.0 0.00 0.00 0.00 50 1015.1
20260906142033 88 200 1.0 2.0 0.00 0.00 0.00 50 1015.1
20260906141531 88 143 1.0 1.0 0.00 0.00 0.00 50 1015.3
20260906141027 86 140 0.0 1.0 0.00 0.00 0.00 52 1015.3
20260906140520 86 145 0.0 0.0 0.00 0.00 0.00 53 1015.0
20260906140020 85 137 1.0 1.0 0.00 0.00 0.00 54 1015.3
20260906135517 84 124 1.0 1.0 0.00 0.00 0.00 55 1015.0
20260906135013 83 142 1.0 1.0 0.00 0.00 0.00 56 1015.0
20260906134508 82 183 1.0 1.0 0.00 0.00 0.00 59 1015.0
20260906134008 81 150 2.0 2.0 0.00 0.00 0.00 59 1015.0
20260906133504 81 132 0.0 1.0 0.00 0.00 0.00 60 1014.9
20260906133000 80 156 0.0 0.0 0.00 0.00 0.00 61 1014.7
20260906132454 80 162 0.0 0.0 0.00 0.00 0.00 62 1014.8
20260906131949 79 161 0.0 0.0 0.00 0.00 0.00 62 1014.9
20260906131445 79 175 0.0 1.0 0.00 0.00 0.00 63 1014.9
20260906130941 78 152 0.0 0.0 0.00 0.00 0.00 64 1014.8
20260906130440 77 145 0.0 1.0 0.00 0.00 0.00 65 1014.7
20260906125934 77 137 0.0 0.0 0.00 0.00 0.00 65 1014.6
20260906125431 77 154 0.0 0.0 0.00 0.00 0.00 66 1014.6
20260906124926 76 166 0.0 0.0 0.00 0.00 0.00 66 1014.6
20260906124422 76 142 0.0 0.0 0.00 0.00 0.00 67 1014.5
20260906123922 76 145 0.0 0.0 0.00 0.00 0.00 67 1014.6
20260906123416 76 149 0.0 0.0 0.00 0.00 0.00 67 1014.5
20260906122916 76 156 0.0 0.0 0.00 0.00 0.00 66 1014.3
20260906122416 76 144 0.0 0.0 0.00 0.00 0.00 66 1014.2
20260906121913 76 148 0.0 0.0 0.00 0.00 0.00 66 1014.3
20260906121409 76 151 0.0 0.0 0.00 0.00 0.00 66 1014.1
20260906120905 76 157 0.0 0.0 0.00 0.00 0.00 66 1013.9
20260906120400 76 164 0.0 0.0 0.00 0.00 0.00 66 1013.8
20260906115856 76 152 0.0 0.0 0.00 0.00 0.00 65 1013.8
20260906115351 76 183 0.0 1.0 0.00 0.00 0.00 65 1013.9
20260906114850 76 157 0.0 0.0 0.00 0.00 0.00 65 1013.9
20260906114346 76 158 0.0 0.0 0.00 0.00 0.00 64 1013.7
20260906113841 76 203 1.0 2.0 0.00 0.00 0.00 64 1013.7
20260906113340 76 153 1.0 1.0 0.00 0.00 0.00 64 1013.6
20260906112836 76 157 0.0 0.0 0.00 0.00 0.00 64 1013.4
20260906112332 77 144 1.0 1.0 0.00 0.00 0.00 63 1013.7
20260906111831 77 153 0.0 0.0 0.00 0.00 0.00 63 1013.6
20260906111326 77 149 0.0 0.0 0.00 0.00 0.00 63 1013.7
20260906110821 77 185 0.0 0.0 0.00 0.00 0.00 63 1013.6
20260906110317 77 161 0.0 0.0 0.00 0.00 0.00 62 1013.4
20260906105816 77 146 1.0 1.0 0.00 0.00 0.00 62 1013.5
20260906105312 77 150 0.0 0.0 0.00 0.00 0.00 62 1013.5
20260906104807 78 175 0.0 1.0 0.00 0.00 0.00 61 1013.6
20260906104305 78 147 0.0 0.0 0.00 0.00 0.00 61 1013.4
20260906103803 78 156 0.0 0.0 0.00 0.00 0.00 61 1013.2
20260906103303 78 146 0.0 0.0 0.00 0.00 0.00 61 1013.4
20260906102759 78 157 0.0 0.0 0.00 0.00 0.00 61 1013.3
20260906102258 78 139 0.0 0.0 0.00 0.00 0.00 60 1013.1
20260906101754 78 149 0.0 0.0 0.00 0.00 0.00 60 1013.3
20260906101254 78 154 0.0 0.0 0.00 0.00 0.00 59 1013.5
20260906100749 78 161 0.0 0.0 0.00 0.00 0.00 59 1013.3
20260906100248 78 152 0.0 0.0 0.00 0.00 0.00 59 1013.2
20260906095744 78 179 0.0 0.0 0.00 0.00 0.00 59 1013.1
20260906095239 78 151 0.0 0.0 0.00 0.00 0.00 58 1013.1
20260906094738 78 123 0.0 1.0 0.00 0.00 0.00 58 1013.0
20260906094233 78 163 0.0 0.0 0.00 0.00 0.00 58 1013.1
20260906093730 78 151 0.0 0.0 0.00 0.00 0.00 58 1013.1
20260906093219 79 165 0.0 0.0 0.00 0.00 0.00 57 1013.2
20260906092715 79 146 0.0 0.0 0.00 0.00 0.00 57 1013.1
20260906092209 79 155 1.0 1.0 0.00 0.00 0.00 57 1013.0
20260906091705 79 156 0.0 0.0 0.00 0.00 0.00 57 1013.1
20260906091201 79 152 0.0 1.0 0.00 0.00 0.00 56 1013.3
20260906090657 79 192 0.0 1.0 0.00 0.00 0.00 56 1013.3
20260906090156 79 151 0.0 0.0 0.00 0.00 0.00 56 1013.2
20260906085655 79 157 0.0 0.0 0.00 0.00 0.00 55 1013.0
20260906085154 80 151 0.0 0.0 0.00 0.00 0.00 55 1013.0
20260906084655 80 137 0.0 1.0 0.00 0.00 0.00 55 1013.0
20260906084149 80 147 0.0 0.0 0.00 0.00 0.00 54 1012.9
20260906083644 80 153 0.0 0.0 0.00 0.00 0.00 54 1013.0
20260906083139 80 186 1.0 2.0 0.00 0.00 0.00 54 1012.8
20260906082635 80 187 1.0 2.0 0.00 0.00 0.00 53 1013.0
20260906082130 81 138 0.0 0.0 0.00 0.00 0.00 53 1013.0
20260906081626 81 152 1.0 2.0 0.00 0.00 0.00 53 1012.8
20260906081120 81 112 0.0 1.0 0.00 0.00 0.00 52 1013.0
20260906080617 81 148 0.0 1.0 0.00 0.00 0.00 52 1012.8
20260906080113 82 168 0.0 0.0 0.00 0.00 0.00 52 1012.9
20260906075607 82 155 0.0 1.0 0.00 0.00 0.00 51 1013.1
20260906075102 82 167 1.0 2.0 0.00 0.00 0.00 51 1013.4
20260906074557 82 280 1.0 1.0 0.00 0.00 0.00 51 1013.2
20260906074055 83 184 0.0 1.0 0.00 0.00 0.00 50 1013.1
20260906073550 83 216 0.0 1.0 0.00 0.00 0.00 50 1012.9
20260906073046 83 151 0.0 0.0 0.00 0.00 0.00 50 1012.9
20260906072541 83 92 2.0 3.0 0.00 0.00 0.00 49 1012.7
20260906072037 83 144 1.0 2.0 0.00 0.00 0.00 49 1012.9
20260906071533 83 192 0.0 0.0 0.00 0.00 0.00 50 1012.9
20260906071028 83 143 0.0 0.0 0.00 0.00 0.00 50 1013.0
20260906070524 83 157 0.0 1.0 0.00 0.00 0.00 49 1013.0
20260906070020 83 137 1.0 1.0 0.00 0.00 0.00 49 1012.9
20260906065519 84 140 0.0 1.0 0.00 0.00 0.00 49 1012.8
20260906065010 84 191 1.0 2.0 0.00 0.00 0.00 48 1012.8
20260906064505 84 164 1.0 1.0 0.00 0.00 0.00 48 1012.8
20260906064000 84 146 1.0 2.0 0.00 0.00 0.00 48 1012.7
20260906063455 85 144 1.0 1.0 0.00 0.00 0.00 47 1012.7
20260906062950 85 151 0.0 1.0 0.00 0.00 0.00 47 1013.0
20260906062445 85 168 1.0 1.0 0.00 0.00 0.00 47 1013.0
20260906061940 85 154 0.0 0.0 0.00 0.00 0.00 47 1012.9
20260906061436 85 163 0.0 0.0 0.00 0.00 0.00 46 1012.9
20260906060930 86 149 1.0 2.0 0.00 0.00 0.00 46 1012.9
20260906060427 86 169 0.0 1.0 0.00 0.00 0.00 46 1013.0
20260906055923 86 155 1.0 1.0 0.00 0.00 0.00 46 1013.0
20260906055419 86 130 2.0 2.0 0.00 0.00 0.00 46 1012.9
20260906054914 86 206 3.0 4.0 0.00 0.00 0.00 45 1013.0
20260906054409 86 169 1.0 1.0 0.00 0.00 0.00 45 1013.0
20260906053905 86 184 1.0 2.0 0.00 0.00 0.00 45 1013.1
20260906053400 86 162 1.0 1.0 0.00 0.00 0.00 45 1013.1
20260906052856 86 184 1.0 1.0 0.00 0.00 0.00 45 1013.2
20260906052352 86 156 2.0 2.0 0.00 0.00 0.00 45 1013.2
20260906051849 87 155 0.0 0.0 0.00 0.00 0.00 45 1013.2
20260906051349 87 194 2.0 2.0 0.00 0.00 0.00 44 1013.3
20260906050844 87 183 2.0 2.0 0.00 0.00 0.00 44 1013.5
20260906050339 87 161 1.0 1.0 0.00 0.00 0.00 44 1013.3
20260906045838 87 171 1.0 1.0 0.00 0.00 0.00 44 1013.4
20260906045332 87 160 0.0 1.0 0.00 0.00 0.00 44 1013.2
20260906044828 87 149 3.0 3.0 0.00 0.00 0.00 43 1013.3
20260906044323 87 149 1.0 1.0 0.00 0.00 0.00 43 1013.3
20260906043819 88 136 1.0 1.0 0.00 0.00 0.00 43 1013.4
20260906043315 88 150 1.0 1.0 0.00 0.00 0.00 43 1013.2
20260906042814 88 176 0.0 0.0 0.00 0.00 0.00 43 1013.2
20260906042314 88 154 1.0 1.0 0.00 0.00 0.00 43 1013.3
20260906041809 88 194 2.0 3.0 0.00 0.00 0.00 42 1013.3
20260906041304 88 150 0.0 1.0 0.00 0.00 0.00 42 1013.3
20260906040800 88 186 2.0 3.0 0.00 0.00 0.00 42 1013.2
20260906040255 89 145 1.0 1.0 0.00 0.00 0.00 42 1013.2
20260906035750 89 168 1.0 1.0 0.00 0.00 0.00 42 1013.4
20260906035246 89 111 2.0 2.0 0.00 0.00 0.00 42 1013.1
20260906034745 89 167 1.0 2.0 0.00 0.00 0.00 42 1013.1
20260906034240 89 147 1.0 2.0 0.00 0.00 0.00 42 1013.3
20260906033736 89 159 1.0 1.0 0.00 0.00 0.00 42 1013.1
20260906033235 89 206 0.0 0.0 0.00 0.00 0.00 42 1013.1
20260906032732 89 114 1.0 2.0 0.00 0.00 0.00 41 1013.2
20260906032227 89 138 1.0 1.0 0.00 0.00 0.00 41 1013.1
20260906031722 89 132 1.0 1.0 0.00 0.00 0.00 41 1012.9
20260906031218 89 124 0.0 1.0 0.00 0.00 0.00 41 1012.9
20260906030717 90 118 1.0 1.0 0.00 0.00 0.00 41 1012.8
20260906030212 90 161 0.0 0.0 0.00 0.00 0.00 40 1012.7
20260906025711 90 150 0.0 1.0 0.00 0.00 0.00 40 1012.5
20260906025206 90 93 0.0 0.0 0.00 0.00 0.00 40 1012.5
20260906024706 90 132 1.0 1.0 0.00 0.00 0.00 40 1012.3
20260906024205 90 140 1.0 2.0 0.00 0.00 0.00 40 1012.2
20260906023701 90 163 1.0 2.0 0.00 0.00 0.00 39 1012.0
20260906023201 91 147 1.0 1.0 0.00 0.00 0.00 39 1012.1
20260906022656 91 147 1.0 1.0 0.00 0.00 0.00 39 1012.0
20260906022151 91 92 1.0 2.0 0.00 0.00 0.00 39 1011.9
20260906021647 91 183 0.0 1.0 0.00 0.00 0.00 38 1012.0
20260906021145 91 135 0.0 0.0 0.00 0.00 0.00 38 1011.8
20260906020640 92 181 1.0 1.0 0.00 0.00 0.00 38 1011.8
20260906020135 92 158 0.0 0.0 0.00 0.00 0.00 38 1011.7
20260906015629 92 161 0.0 1.0 0.00 0.00 0.00 37 1011.5
20260906015128 92 242 0.0 1.0 0.00 0.00 0.00 37 1011.4
20260906014623 93 145 1.0 2.0 0.00 0.00 0.00 37 1011.4
20260906014120 93 126 0.0 0.0 0.00 0.00 0.00 36 1011.2
20260906013614 93 157 1.0 2.0 0.00 0.00 0.00 36 1011.1
20260906013110 93 163 0.0 0.0 0.00 0.00 0.00 36 1011.0
20260906012604 93 126 1.0 2.0 0.00 0.00 0.00 36 1011.1
20260906012059 93 157 0.0 1.0 0.00 0.00 0.00 36 1010.9
20260906011555 93 123 0.0 0.0 0.00 0.00 0.00 36 1011.0
20260906011054 94 143 0.0 0.0 0.00 0.00 0.00 36 1010.8
20260906010550 94 136 0.0 0.0 0.00 0.00 0.00 36 1010.9
20260906010046 94 136 2.0 2.0 0.00 0.00 0.00 36 1010.8
20260906005545 95 102 1.0 2.0 0.00 0.00 0.00 35 1010.7
20260906005044 95 165 0.0 1.0 0.00 0.00 0.00 35 1010.8
20260906004544 95 157 1.0 2.0 0.00 0.00 0.00 35 1010.8
20260906004039 95 112 1.0 2.0 0.00 0.00 0.00 34 1010.7
20260906003534 95 154 2.0 3.0 0.00 0.00 0.00 34 1010.7
20260906003030 96 160 1.0 1.0 0.00 0.00 0.00 34 1010.5
20260906002525 96 94 0.0 1.0 0.00 0.00 0.00 33 1010.6
20260906002020 96 142 0.0 1.0 0.00 0.00 0.00 33 1010.4
20260906001515 96 205 1.0 1.0 0.00 0.00 0.00 32 1010.5
20260906001009 97 117 0.0 0.0 0.00 0.00 0.00 32 1010.6
20260906000506 97 164 0.0 1.0 0.00 0.00 0.00 31 1010.5
20260905235959 97 136 2.0 2.0 0.00 0.00 0.00 32 1010.4
20260905235453 97 209 2.0 2.0 0.00 0.00 0.00 32 1010.3
20260905234948 97 169 3.0 4.0 0.00 0.00 0.00 31 1010.4
20260905234444 97 106 3.0 4.0 0.00 0.00 0.00 32 1010.2
20260905233944 97 81 1.0 1.0 0.00 0.00 0.00 32 1010.2
20260905233440 98 137 2.0 3.0 0.00 0.00 0.00 32 1010.2
20260905232938 98 219 1.0 2.0 0.00 0.00 0.00 32 1010.1
20260905232435 98 174 0.0 1.0 0.00 0.00 0.00 32 1010.3
20260905231930 98 122 1.0 1.0 0.00 0.00 0.00 32 1010.1
20260905231426 98 130 1.0 1.0 0.00 0.00 0.00 32 1010.2
20260905230922 99 167 1.0 3.0 0.00 0.00 0.00 32 1010.1
20260905230420 99 242 1.0 2.0 0.00 0.00 0.00 32 1010.1
20260905225914 99 171 1.0 1.0 0.00 0.00 0.00 32 1010.2
20260905225409 99 184 1.0 1.0 0.00 0.00 0.00 31 1010.1
20260905224903 99 190 1.0 1.0 0.00 0.00 0.00 32 1010.4
20260905224359 100 156 5.0 7.0 0.00 0.00 0.00 31 1010.3
20260905223853 100 181 1.0 1.0 0.00 0.00 0.00 31 1010.3
20260905223351 100 163 3.0 4.0 0.00 0.00 0.00 31 1010.3
20260905222851 102 74 1.0 1.0 0.00 0.00 0.00 32 1010.2
20260905222350 102 184 2.0 3.0 0.00 0.00 0.00 30 1010.2
20260905221841 102 174 0.0 1.0 0.00 0.00 0.00 30 1010.4
20260905221338 102 155 4.0 4.0 0.00 0.00 0.00 30 1010.4
20260905220833 101 66 1.0 1.0 0.00 0.00 0.00 31 1010.3
20260905220329 100 189 4.0 6.0 0.00 0.00 0.00 30 1010.4
20260905215828 102 81 0.0 1.0 0.00 0.00 0.00 30 1010.2
20260905215324 102 160 0.0 0.0 0.00 0.00 0.00 30 1010.5
20260905214820 104 177 1.0 2.0 0.00 0.00 0.00 29 1010.5
20260905214316 104 142 2.0 3.0 0.00 0.00 0.00 28 1010.8